Tracking 28799 objects as of 18-Apr-2024
HD Live streaming from Space Station
objects crossing your sky now

COSMOS 2540

Track COSMOS 2540 now!
10-day predictions


NORAD ID: 44517
Int'l Code: 2019-057A
Perigee: 938.0 km
Apogee: 962.5 km
Inclination: 99.2 °
Period: 103.9 minutes
Semi major axis: 7321 km
RCS: Unknown
Launch date: August 30, 2019
Source: Commonwealth of Independent States (former USSR) (CIS)
Launch site: PLESETSK MISSILE AND SPACE COMPLEX (PKMTR)
Your satellite tracking list
Your tracking list is empty




NASA's NSSDC Master Catalog

Two Line Element Set (TLE):
1 44517U 19057A   24108.89018295  .00000070  00000-0  99382-4 0  9992
2 44517  99.2401 121.5888 0016731 112.0165 248.2770 13.85890773234409
Source of the keplerian elements: AFSPC